Hourly Weather Roundup
Issued by NWS Central Illinois

Home | Current Version | Previous Version | Graphics & Text | Print | Product List | Glossary On
Versions: 1 2 3 4 5 6 7 8 9 10 11 12 13 14 15 16 17 18 19 20 21 22 23 24 25 26 27 28 29 30 31 32 33 34 35 36 37 38 39 40 41 42 43 44 45 46 47 48 49 50
000
NZUS43 KILX 201510
HWRILX

AREA WEATHER ROUNDUP
NATIONAL WEATHER SERVICE, LINCOLN IL
900 AM CST THU NOV 20 2014


CITY           SKY/WX    TMP DP  RH WIND       PRES   REMARKS
BLOOMINGTON    SUNNY     23  13  65 W20G25    30.16R WCI   8
CHAMPAIGN      SUNNY     24  14  65 W18       30.18R WCI  10
DECATUR        FAIR      26  13  57 W12       30.20R WCI  16
FLORA          SUNNY     27  17  64 W9        30.27R WCI  18
GALESBURG      SUNNY     25  16  68 W15       30.16R WCI  12
JACKSONVILLE   CLOUDY    27  16  62 W8        30.23R WCI  19
LACON          SUNNY     23  12  63 W13       30.15R WCI  11
LAWRENCEVILLE  SUNNY     27  17  66 W10       30.26R WCI  17
LITCHFIELD     SUNNY     25  16  68 W9        30.24R WCI  15
$$


CITY           SKY/WX    TMP DP  RH WIND       PRES   REMARKS
LINCOLN        SUNNY     27  15  60 W9G16     30.21S WCI  17
MACOMB         SUNNY     26  16  65 W13       30.21R WCI  15
MATTOON        SUNNY     25  13  60 W13       30.21R WCI  14
MT CARMEL AP   SUNNY     30  19  64 W12       30.26R WCI  21
OLNEY-NOBLE AP SUNNY     28  19  69 W10       30.26R WCI  19
PARIS          FAIR      25  17  69 W17       30.21R WCI  12
PEORIA         SUNNY     26  13  57 W12       30.17S WCI  16
PONTIAC        SUNNY     25  15  65 W21       30.14S WCI  11
RANTOUL        SUNNY     26  15  63 W17       30.16R WCI  13
ROBINSON       SUNNY     27  18  69 W16       30.26R WCI  15
SPRINGFIELD    MOSUNNY   26  14  60 W12       30.22R WCI  16
TAYLORVILLE    SUNNY     27  16  63 W13       30.23R WCI  16
$$

...REGIONAL REPORTS...


CITY           SKY/WX    TMP DP  RH WIND       PRES   REMARKS
CHICAGO O`HARE MOSUNNY   20  10  65 W15       30.05R WCI   6
KANKAKEE       SUNNY     23  14  68 W21       30.12S WCI   8
MOLINE         SUNNY     22  12  65 W14       30.15R WCI   9
MOUNT VERNON   SUNNY     27  18  69 W6        30.29R WCI  20
PITTSFIELD     CLOUDY    26  18  73 SW7       30.24R WCI  18
QUINCY         CLOUDY    26  14  60 W9        30.22R WCI  17
ROCKFORD       MOSUNNY   20  11  68 W15       30.09R WCI   6
$$


CITY           SKY/WX    TMP DP  RH WIND       PRES   REMARKS
BURLINGTON     SUNNY     24  13  62 NW8G21    30.19R WCI  15
CEDAR RAPIDS   SUNNY     17  11  77 NW14      30.14R WCI   3
DES MOINES     MOSUNNY   22  12  65 NW13      30.20R WCI  10
KIRKSVILLE     SUNNY     25  16  68 W6        30.23R WCI  18
OTTUMWA        SUNNY     22  12  65 W10       30.19R WCI  11
ST LOUIS       PTSUNNY   28  18  66 W8        30.27R WCI  20
$$


CITY           SKY/WX    TMP DP  RH WIND       PRES   REMARKS
TERRE HAUTE    SUNNY     26  14  60 W13       30.21R WCI  15
EVANSVILLE     SUNNY     28  15  58 W7        30.28R WCI  21
INDIANAPOLIS   MOSUNNY   24  14  65 W18       30.16R WCI  10
LAFAYETTE      SUNNY     23  13  65 W14       30.14R WCI  11
MADISON        MOSUNNY   18   7  62 W9G17     30.01R WCI   7
MILWAUKEE      MOSUNNY   19   7  59 W18G28    29.99R WCI   4
$$





USA.gov is the U.S. government's official web portal to all federal, state and local government web resources and services.